GLO1748 SBBR-SBFL

Flight info

Callsign GLO1748
Flight time 1h 51m
Altitude 38000
Route PAPID2A KUKOL UZ5 IMTBI DCT EDREX EDREX1B
Aircraft B738/M-SDFGIKLORWXY/LB1

Departure

Time 2026-04-08 14:43
Airport Presidente Juscelino Kubitschek International Airport (SBBR)

Arrival

Time 2026-04-08 16:34
Airport Hercílio Luz International Airport (SBFL)
Time Latitude Longitude Altitude Speed Heading
2026-04-08 14:33 -15.86750 -47.91756 3471 ft 0 kts 266°
2026-04-08 14:36 -15.86749 -47.91748 3471 ft 4 kts 268°
2026-04-08 14:36 -15.86752 -47.91723 3470 ft 4 kts 312°
2026-04-08 14:36 -15.86771 -47.91710 3471 ft 4 kts 339°
2026-04-08 14:36 -15.86797 -47.91703 3471 ft 4 kts 358°
2026-04-08 14:37 -15.86818 -47.91703 3471 ft 0 kts 356°
2026-04-08 14:38 -15.86794 -47.91704 3471 ft 8 kts 356°
2026-04-08 14:38 -15.86719 -47.91709 3471 ft 11 kts 356°
2026-04-08 14:39 -15.86642 -47.91722 3469 ft 11 kts 334°
2026-04-08 14:39 -15.86611 -47.91796 3470 ft 13 kts 268°
2026-04-08 14:39 -15.86617 -47.91896 3470 ft 14 kts 266°
2026-04-08 14:39 -15.86623 -47.91995 3469 ft 13 kts 266°
2026-04-08 14:40 -15.86629 -47.92088 3471 ft 13 kts 266°
2026-04-08 14:40 -15.86622 -47.92190 3469 ft 16 kts 291°
2026-04-08 14:40 -15.86566 -47.92300 3469 ft 18 kts 307°
2026-04-08 14:40 -15.86528 -47.92416 3467 ft 17 kts 268°
2026-04-08 14:41 -15.86536 -47.92538 3465 ft 17 kts 266°
2026-04-08 14:41 -15.86544 -47.92660 3463 ft 18 kts 266°
2026-04-08 14:41 -15.86496 -47.92766 3460 ft 19 kts 356°
2026-04-08 14:41 -15.86381 -47.92727 3459 ft 13 kts 45°
2026-04-08 14:42 -15.86350 -47.92638 3459 ft 14 kts 88°
2026-04-08 14:42 -15.86339 -47.92467 3463 ft 51 kts 86°
2026-04-08 14:42 -15.86300 -47.91853 3463 ft 118 kts 86°
2026-04-08 14:42 -15.86235 -47.90798 3476 ft 172 kts 87°
2026-04-08 14:43 -15.86147 -47.89424 3819 ft 194 kts 85°
2026-04-08 14:43 -15.86055 -47.88070 4854 ft 187 kts 94°
2026-04-08 14:43 -15.86615 -47.86887 5411 ft 190 kts 142°
2026-04-08 14:43 -15.87879 -47.86483 5766 ft 197 kts 177°
2026-04-08 14:44 -15.89253 -47.86405 6233 ft 199 kts 174°
2026-04-08 14:44 -15.90646 -47.86297 6692 ft 201 kts 174°
2026-04-08 14:44 -15.92039 -47.86176 7174 ft 201 kts 174°
2026-04-08 14:44 -15.93441 -47.86040 7633 ft 203 kts 173°
2026-04-08 14:45 -15.94857 -47.85890 7997 ft 210 kts 173°
2026-04-08 14:45 -15.96381 -47.85718 8151 ft 230 kts 172°
2026-04-08 14:45 -15.98035 -47.85521 8317 ft 248 kts 172°
2026-04-08 14:45 -15.99812 -47.85306 8509 ft 264 kts 172°
2026-04-08 14:46 -16.01659 -47.85080 8876 ft 270 kts 172°
2026-04-08 14:46 -16.03523 -47.84892 8979 ft 273 kts 180°
2026-04-08 14:46 -16.05338 -47.85401 8997 ft 274 kts 211°
2026-04-08 14:46 -16.06672 -47.86783 9212 ft 273 kts 240°
2026-04-08 14:47 -16.07290 -47.88657 9635 ft 277 kts 263°
2026-04-08 14:47 -16.07428 -47.90649 10133 ft 277 kts 267°
2026-04-08 14:47 -16.07529 -47.92658 10618 ft 279 kts 267°
2026-04-08 14:47 -16.07640 -47.94683 11096 ft 281 kts 266°
2026-04-08 14:48 -16.07759 -47.96721 11550 ft 283 kts 266°
2026-04-08 14:48 -16.08083 -47.98735 11980 ft 284 kts 246°
2026-04-08 14:48 -16.08996 -48.00547 12466 ft 283 kts 240°
2026-04-08 14:48 -16.09967 -48.02339 12900 ft 285 kts 240°
2026-04-08 14:49 -16.10940 -48.04143 13316 ft 288 kts 240°
2026-04-08 14:49 -16.11923 -48.05985 13620 ft 297 kts 240°
2026-04-08 14:49 -16.12953 -48.07929 13705 ft 316 kts 240°
2026-04-08 14:49 -16.14045 -48.10000 13845 ft 337 kts 240°
2026-04-08 14:50 -16.15203 -48.12200 14008 ft 356 kts 240°
2026-04-08 14:50 -16.16419 -48.14514 14237 ft 371 kts 240°
2026-04-08 14:50 -16.17670 -48.16893 14733 ft 376 kts 241°
2026-04-08 14:50 -16.18929 -48.19290 15341 ft 378 kts 241°
2026-04-08 14:51 -16.20178 -48.21667 15912 ft 381 kts 241°
2026-04-08 14:51 -16.21454 -48.24097 16473 ft 384 kts 241°
2026-04-08 14:51 -16.22740 -48.26546 17013 ft 387 kts 240°
2026-04-08 14:51 -16.24379 -48.28763 17479 ft 390 kts 220°
2026-04-08 14:52 -16.26672 -48.30264 18003 ft 392 kts 201°
2026-04-08 14:52 -16.29249 -48.31202 18554 ft 393 kts 198°
2026-04-08 14:52 -16.31871 -48.32081 19020 ft 397 kts 198°
2026-04-08 14:52 -16.34518 -48.32956 19490 ft 400 kts 198°
2026-04-08 14:53 -16.37180 -48.33842 19944 ft 403 kts 198°
2026-04-08 14:53 -16.39860 -48.34746 20381 ft 406 kts 198°
2026-04-08 14:53 -16.42560 -48.35667 20819 ft 409 kts 198°
2026-04-08 14:53 -16.45271 -48.36598 21257 ft 411 kts 199°
2026-04-08 14:54 -16.47994 -48.37537 21661 ft 414 kts 199°
2026-04-08 14:54 -16.50695 -48.38471 22023 ft 417 kts 199°
2026-04-08 14:54 -16.53472 -48.39432 22414 ft 419 kts 199°
2026-04-08 14:54 -16.56253 -48.40393 22790 ft 422 kts 199°
2026-04-08 14:55 -16.59050 -48.41359 23153 ft 424 kts 199°
2026-04-08 14:55 -16.61854 -48.42329 23491 ft 427 kts 199°
2026-04-08 14:55 -16.64682 -48.43307 23832 ft 429 kts 199°
2026-04-08 14:55 -16.67524 -48.44291 24171 ft 431 kts 199°
2026-04-08 14:56 -16.70431 -48.45094 24468 ft 434 kts 189°
2026-04-08 14:56 -16.73448 -48.45426 24797 ft 436 kts 185°
2026-04-08 14:56 -16.76483 -48.45640 25115 ft 438 kts 184°
2026-04-08 14:56 -16.79541 -48.45827 25420 ft 440 kts 184°
2026-04-08 14:57 -16.82611 -48.46023 25722 ft 442 kts 184°
2026-04-08 14:57 -16.85656 -48.46236 26011 ft 444 kts 185°
2026-04-08 14:57 -16.88747 -48.46471 26293 ft 446 kts 185°
2026-04-08 14:57 -16.91852 -48.46720 26572 ft 448 kts 185°
2026-04-08 14:58 -16.94971 -48.46979 26851 ft 450 kts 185°
2026-04-08 14:58 -16.98098 -48.47242 27119 ft 452 kts 185°
2026-04-08 14:58 -17.01240 -48.47508 27372 ft 454 kts 185°
2026-04-08 14:58 -17.04388 -48.47774 27637 ft 455 kts 185°
2026-04-08 14:59 -17.07554 -48.48041 27909 ft 457 kts 185°
2026-04-08 14:59 -17.10725 -48.48308 28155 ft 458 kts 185°
2026-04-08 14:59 -17.13910 -48.48577 28402 ft 460 kts 185°
2026-04-08 14:59 -17.17109 -48.48846 28642 ft 461 kts 185°
2026-04-08 15:00 -17.20319 -48.49115 28874 ft 463 kts 185°
2026-04-08 15:00 -17.23496 -48.49382 29105 ft 464 kts 185°
2026-04-08 15:00 -17.26762 -48.49656 29333 ft 466 kts 185°
2026-04-08 15:00 -17.29960 -48.49925 29539 ft 468 kts 186°
2026-04-08 15:01 -17.33208 -48.50199 29780 ft 469 kts 186°
2026-04-08 15:01 -17.35403 -48.50384 29924 ft 470 kts 186°
2026-04-08 15:01 -17.39727 -48.50748 30201 ft 471 kts 186°
2026-04-08 15:01 -17.42991 -48.51023 30479 ft 471 kts 186°
2026-04-08 15:02 -17.46247 -48.51298 30798 ft 469 kts 186°
2026-04-08 15:02 -17.49498 -48.51572 31134 ft 467 kts 186°
2026-04-08 15:02 -17.52735 -48.51845 31471 ft 465 kts 186°
2026-04-08 15:02 -17.55950 -48.52117 31791 ft 463 kts 186°
2026-04-08 15:03 -17.59161 -48.52388 32093 ft 462 kts 186°
2026-04-08 15:03 -17.62361 -48.52657 32386 ft 461 kts 186°
2026-04-08 15:03 -17.64471 -48.52835 32587 ft 460 kts 186°
2026-04-08 15:03 -17.67659 -48.53104 32904 ft 458 kts 186°
2026-04-08 15:04 -17.70827 -48.53372 33195 ft 457 kts 186°
2026-04-08 15:04 -17.73992 -48.53645 33526 ft 455 kts 186°
2026-04-08 15:04 -17.77141 -48.53925 33822 ft 453 kts 186°
2026-04-08 15:04 -17.80278 -48.54208 34108 ft 452 kts 186°
2026-04-08 15:05 -17.83407 -48.54491 34391 ft 450 kts 186°
2026-04-08 15:05 -17.86527 -48.54771 34629 ft 450 kts 186°
2026-04-08 15:05 -17.89656 -48.55052 34845 ft 450 kts 186°
2026-04-08 15:05 -17.92770 -48.55330 35067 ft 449 kts 186°
2026-04-08 15:06 -17.95878 -48.55607 35314 ft 448 kts 186°
2026-04-08 15:06 -17.98940 -48.55880 35596 ft 446 kts 186°
2026-04-08 15:06 -18.02031 -48.56155 35835 ft 445 kts 186°
2026-04-08 15:06 -18.05131 -48.56432 35989 ft 446 kts 186°
2026-04-08 15:07 -18.08229 -48.56708 36161 ft 446 kts 186°
2026-04-08 15:07 -18.11320 -48.56984 36372 ft 446 kts 186°
2026-04-08 15:07 -18.14412 -48.57259 36568 ft 445 kts 186°
2026-04-08 15:07 -18.17488 -48.57533 36830 ft 442 kts 186°
2026-04-08 15:08 -18.20531 -48.57804 37250 ft 436 kts 186°
2026-04-08 15:08 -18.23540 -48.58072 37601 ft 431 kts 186°
2026-04-08 15:08 -18.26527 -48.58339 37750 ft 431 kts 186°
2026-04-08 15:09 -18.32531 -48.58879 37894 ft 434 kts 186°
2026-04-08 15:09 -18.35542 -48.59156 38002 ft 435 kts 186°
2026-04-08 15:09 -18.38561 -48.59436 38156 ft 434 kts 186°
2026-04-08 15:10 -18.44605 -48.59996 38198 ft 437 kts 186°
2026-04-08 15:10 -18.50613 -48.60550 38203 ft 435 kts 186°
2026-04-08 15:11 -18.56643 -48.61105 38207 ft 434 kts 186°
2026-04-08 15:11 -18.62650 -48.61656 38199 ft 433 kts 186°
2026-04-08 15:12 -18.68636 -48.62208 38203 ft 432 kts 186°
2026-04-08 15:12 -18.74620 -48.62755 38197 ft 431 kts 186°
2026-04-08 15:13 -18.80596 -48.63300 38203 ft 431 kts 186°
2026-04-08 15:13 -18.86574 -48.63840 38205 ft 431 kts 186°
2026-04-08 15:14 -18.92561 -48.64382 38206 ft 432 kts 186°
2026-04-08 15:14 -18.98563 -48.64928 38207 ft 434 kts 186°
2026-04-08 15:15 -19.04587 -48.65476 38205 ft 436 kts 187°
2026-04-08 15:15 -19.10642 -48.66025 38207 ft 437 kts 187°
2026-04-08 15:16 -19.16712 -48.66578 38202 ft 438 kts 187°
2026-04-08 15:16 -19.22753 -48.67176 38203 ft 439 kts 187°
2026-04-08 15:17 -19.28845 -48.67819 38195 ft 440 kts 187°
2026-04-08 15:17 -19.34942 -48.68458 38198 ft 440 kts 187°
2026-04-08 15:18 -19.44096 -48.69407 38193 ft 440 kts 187°
2026-04-08 15:18 -19.50195 -48.70037 38191 ft 440 kts 187°
2026-04-08 15:19 -19.56293 -48.70667 38182 ft 439 kts 187°
2026-04-08 15:19 -19.62379 -48.71297 38184 ft 439 kts 187°
2026-04-08 15:20 -19.68415 -48.71922 38183 ft 438 kts 187°
2026-04-08 15:20 -19.74480 -48.72551 38187 ft 438 kts 187°
2026-04-08 15:21 -19.80539 -48.73179 38177 ft 437 kts 187°
2026-04-08 15:21 -19.86605 -48.73810 38145 ft 438 kts 187°
2026-04-08 15:22 -19.92677 -48.74440 38132 ft 438 kts 187°
2026-04-08 15:22 -19.98741 -48.75070 38140 ft 437 kts 188°
2026-04-08 15:23 -20.04762 -48.75696 38120 ft 438 kts 188°
2026-04-08 15:23 -20.10829 -48.76327 38133 ft 438 kts 188°
2026-04-08 15:24 -20.16896 -48.76958 38129 ft 438 kts 188°
2026-04-08 15:24 -20.22968 -48.77589 38142 ft 439 kts 188°
2026-04-08 15:25 -20.29054 -48.78224 38124 ft 440 kts 188°
2026-04-08 15:25 -20.35150 -48.78864 38118 ft 440 kts 188°
2026-04-08 15:26 -20.41249 -48.79504 38120 ft 441 kts 188°
2026-04-08 15:26 -20.47350 -48.80142 38124 ft 441 kts 188°
2026-04-08 15:27 -20.53474 -48.80783 38116 ft 442 kts 188°
2026-04-08 15:27 -20.59601 -48.81423 38111 ft 443 kts 188°
2026-04-08 15:28 -20.65733 -48.82066 38107 ft 442 kts 188°
2026-04-08 15:28 -20.71834 -48.82838 38115 ft 441 kts 192°
2026-04-08 15:29 -20.77853 -48.83889 38110 ft 441 kts 192°
2026-04-08 15:29 -20.83919 -48.84875 38108 ft 441 kts 192°
2026-04-08 15:30 -20.89988 -48.85833 38116 ft 440 kts 192°
2026-04-08 15:30 -20.96043 -48.86795 38111 ft 440 kts 192°
2026-04-08 15:31 -21.02104 -48.87763 38108 ft 440 kts 192°
2026-04-08 15:31 -21.08160 -48.88732 38114 ft 439 kts 192°
2026-04-08 15:32 -21.14200 -48.89698 38110 ft 439 kts 192°
2026-04-08 15:32 -21.20239 -48.90666 38104 ft 439 kts 192°
2026-04-08 15:33 -21.26251 -48.91626 38107 ft 439 kts 192°
2026-04-08 15:33 -21.32299 -48.92591 38101 ft 439 kts 192°
2026-04-08 15:34 -21.38349 -48.93555 38103 ft 440 kts 192°
2026-04-08 15:34 -21.44415 -48.94521 38101 ft 441 kts 192°
2026-04-08 15:35 -21.50484 -48.95490 38105 ft 441 kts 192°
2026-04-08 15:35 -21.56524 -48.96454 38103 ft 442 kts 192°
2026-04-08 15:36 -21.62614 -48.97426 38097 ft 443 kts 192°
2026-04-08 15:36 -21.68671 -48.98583 38102 ft 441 kts 197°
2026-04-08 15:37 -21.74638 -49.00131 38104 ft 441 kts 197°
2026-04-08 15:37 -21.80619 -49.01625 38098 ft 440 kts 197°
2026-04-08 15:38 -21.86565 -49.03079 38103 ft 440 kts 197°
2026-04-08 15:38 -21.92543 -49.04540 38100 ft 440 kts 197°
2026-04-08 15:39 -21.98516 -49.06006 38102 ft 440 kts 197°
2026-04-08 15:39 -22.04487 -49.07472 38102 ft 440 kts 197°
2026-04-08 15:40 -22.10454 -49.08940 38102 ft 440 kts 197°
2026-04-08 15:40 -22.16419 -49.10415 38106 ft 440 kts 197°
2026-04-08 15:41 -22.22386 -49.11893 38098 ft 440 kts 197°
2026-04-08 15:41 -22.28363 -49.13372 38103 ft 440 kts 197°
2026-04-08 15:42 -22.34282 -49.14835 38105 ft 440 kts 198°
2026-04-08 15:42 -22.40242 -49.16314 38089 ft 437 kts 198°
2026-04-08 15:43 -22.46074 -49.17982 38089 ft 431 kts 200°
2026-04-08 15:43 -22.51891 -49.19693 38105 ft 429 kts 200°
2026-04-08 15:44 -22.57680 -49.21158 38090 ft 434 kts 191°
2026-04-08 15:44 -22.63741 -49.21383 38107 ft 437 kts 185°
2026-04-08 15:45 -22.69823 -49.21447 38107 ft 436 kts 186°
2026-04-08 15:45 -22.75906 -49.21538 38114 ft 436 kts 186°
2026-04-08 15:46 -22.81972 -49.21656 38108 ft 436 kts 186°
2026-04-08 15:46 -22.88014 -49.21785 38113 ft 436 kts 186°
2026-04-08 15:47 -22.94079 -49.21917 38103 ft 435 kts 186°
2026-04-08 15:47 -23.00142 -49.22049 38117 ft 435 kts 186°
2026-04-08 15:48 -23.06208 -49.22181 38103 ft 436 kts 186°
2026-04-08 15:48 -23.12278 -49.22313 38104 ft 435 kts 186°
2026-04-08 15:49 -23.18302 -49.22442 38105 ft 436 kts 186°
2026-04-08 15:49 -23.24372 -49.22576 38095 ft 436 kts 186°
2026-04-08 15:50 -23.30440 -49.22709 38102 ft 436 kts 186°
2026-04-08 15:50 -23.36508 -49.22841 38102 ft 436 kts 186°
2026-04-08 15:51 -23.41559 -49.22951 38100 ft 436 kts 187°
2026-04-08 15:51 -23.47639 -49.23088 38094 ft 437 kts 186°
2026-04-08 15:52 -23.53719 -49.23219 38101 ft 437 kts 187°
2026-04-08 15:52 -23.59806 -49.23351 38088 ft 437 kts 187°
2026-04-08 15:53 -23.65893 -49.23483 38101 ft 437 kts 187°
2026-04-08 15:53 -23.71984 -49.23616 38093 ft 437 kts 187°
2026-04-08 15:54 -23.78041 -49.23749 38090 ft 438 kts 187°
2026-04-08 15:54 -23.84141 -49.23883 38079 ft 438 kts 187°
2026-04-08 15:55 -23.90246 -49.24017 38091 ft 438 kts 187°
2026-04-08 15:55 -23.96368 -49.24152 38079 ft 439 kts 187°
2026-04-08 15:56 -24.02482 -49.24286 38070 ft 440 kts 187°
2026-04-08 15:56 -24.08597 -49.24422 38072 ft 440 kts 187°
2026-04-08 15:57 -24.14687 -49.24555 38074 ft 440 kts 187°
2026-04-08 15:57 -24.20830 -49.24691 38078 ft 444 kts 187°
2026-04-08 15:58 -24.27051 -49.24832 38076 ft 450 kts 187°
2026-04-08 15:58 -24.33355 -49.24972 38068 ft 456 kts 187°
2026-04-08 15:59 -24.39736 -49.25113 38059 ft 460 kts 187°
2026-04-08 15:59 -24.46162 -49.25254 38060 ft 463 kts 187°
2026-04-08 16:00 -24.52615 -49.25396 38058 ft 465 kts 187°
2026-04-08 16:00 -24.59054 -49.25538 38055 ft 465 kts 187°
2026-04-08 16:01 -24.65524 -49.25681 38040 ft 465 kts 187°
2026-04-08 16:01 -24.71984 -49.25823 38030 ft 463 kts 187°
2026-04-08 16:02 -24.78404 -49.25965 38034 ft 460 kts 187°
2026-04-08 16:02 -24.84799 -49.26107 38041 ft 458 kts 187°
2026-04-08 16:03 -24.91171 -49.26250 38035 ft 457 kts 187°
2026-04-08 16:03 -24.97520 -49.26392 38031 ft 456 kts 187°
2026-04-08 16:04 -25.03864 -49.26534 38036 ft 455 kts 187°
2026-04-08 16:04 -25.10198 -49.26676 38033 ft 455 kts 187°
2026-04-08 16:05 -25.16538 -49.26819 38040 ft 456 kts 187°
2026-04-08 16:05 -25.22853 -49.26961 38054 ft 457 kts 187°
2026-04-08 16:06 -25.29241 -49.27105 38051 ft 459 kts 187°
2026-04-08 16:06 -25.35647 -49.27251 38050 ft 461 kts 187°
2026-04-08 16:07 -25.42066 -49.27392 38046 ft 462 kts 187°
2026-04-08 16:07 -25.48515 -49.27534 38048 ft 463 kts 187°
2026-04-08 16:08 -25.54983 -49.27681 38039 ft 465 kts 187°
2026-04-08 16:08 -25.61414 -49.27823 38023 ft 466 kts 187°
2026-04-08 16:09 -25.67904 -49.27969 38017 ft 465 kts 187°
2026-04-08 16:09 -25.74403 -49.27222 38032 ft 474 kts 173°
2026-04-08 16:10 -25.80860 -49.25656 38016 ft 474 kts 173°
2026-04-08 16:10 -25.87314 -49.24146 38006 ft 473 kts 174°
2026-04-08 16:11 -25.93761 -49.22735 37409 ft 480 kts 174°
2026-04-08 16:11 -25.97029 -49.22028 36885 ft 477 kts 174°
2026-04-08 16:11 -26.00288 -49.21320 36327 ft 477 kts 174°
2026-04-08 16:12 -26.03546 -49.20610 35727 ft 477 kts 174°
2026-04-08 16:12 -26.06811 -49.19899 35057 ft 480 kts 173°
2026-04-08 16:12 -26.10099 -49.19049 34112 ft 491 kts 168°
2026-04-08 16:12 -26.13396 -49.17971 33397 ft 497 kts 166°
2026-04-08 16:13 -26.16705 -49.16784 32639 ft 500 kts 166°
2026-04-08 16:13 -26.20022 -49.15598 31953 ft 501 kts 166°
2026-04-08 16:13 -26.23349 -49.14433 31195 ft 502 kts 166°
2026-04-08 16:13 -26.26694 -49.13289 30459 ft 503 kts 167°
2026-04-08 16:14 -26.30047 -49.12159 29684 ft 504 kts 167°
2026-04-08 16:14 -26.33400 -49.11039 28898 ft 504 kts 167°
2026-04-08 16:14 -26.36745 -49.09918 28339 ft 498 kts 167°
2026-04-08 16:14 -26.40046 -49.08811 27749 ft 494 kts 167°
2026-04-08 16:15 -26.43320 -49.07715 27171 ft 489 kts 167°
2026-04-08 16:15 -26.46526 -49.06638 26616 ft 484 kts 167°
2026-04-08 16:15 -26.49769 -49.05547 26036 ft 479 kts 167°
2026-04-08 16:15 -26.52946 -49.04479 25487 ft 474 kts 167°
2026-04-08 16:16 -26.56045 -49.03515 25166 ft 462 kts 169°
2026-04-08 16:16 -26.59153 -49.02651 24647 ft 457 kts 171°
2026-04-08 16:16 -26.62231 -49.01826 24116 ft 453 kts 171°
2026-04-08 16:16 -26.65278 -49.01001 23579 ft 449 kts 170°
2026-04-08 16:17 -26.71340 -48.99306 22487 ft 443 kts 170°
2026-04-08 16:17 -26.74278 -48.98454 21984 ft 441 kts 169°
2026-04-08 16:17 -26.77208 -48.97459 21435 ft 439 kts 164°
2026-04-08 16:18 -26.80043 -48.96193 20922 ft 437 kts 160°
2026-04-08 16:18 -26.82815 -48.94814 20398 ft 434 kts 160°
2026-04-08 16:18 -26.85555 -48.93426 19865 ft 430 kts 160°
2026-04-08 16:18 -26.88283 -48.92078 19337 ft 427 kts 160°
2026-04-08 16:19 -26.91000 -48.90760 18802 ft 424 kts 161°
2026-04-08 16:19 -26.93701 -48.89470 18267 ft 421 kts 161°
2026-04-08 16:19 -26.96384 -48.88202 17747 ft 417 kts 161°
2026-04-08 16:19 -26.99046 -48.86940 17228 ft 414 kts 161°
2026-04-08 16:20 -27.01688 -48.85681 16721 ft 410 kts 161°
2026-04-08 16:20 -27.04307 -48.84434 16202 ft 408 kts 161°
2026-04-08 16:20 -27.06886 -48.83209 15698 ft 406 kts 161°
2026-04-08 16:20 -27.09480 -48.81975 15186 ft 403 kts 161°
2026-04-08 16:21 -27.12057 -48.80747 14680 ft 401 kts 161°
2026-04-08 16:21 -27.14625 -48.79523 14153 ft 400 kts 161°
2026-04-08 16:21 -27.17179 -48.78307 13637 ft 398 kts 161°
2026-04-08 16:21 -27.19720 -48.77099 13143 ft 396 kts 161°
2026-04-08 16:22 -27.22255 -48.75884 12621 ft 395 kts 161°
2026-04-08 16:22 -27.24781 -48.74675 12116 ft 394 kts 161°
2026-04-08 16:22 -27.27297 -48.73470 11599 ft 392 kts 161°
2026-04-08 16:22 -27.29778 -48.72308 11136 ft 388 kts 163°
2026-04-08 16:23 -27.32313 -48.71333 10815 ft 379 kts 167°
2026-04-08 16:23 -27.34794 -48.70477 10602 ft 367 kts 168°
2026-04-08 16:23 -27.37212 -48.69654 10425 ft 357 kts 168°
2026-04-08 16:23 -27.39556 -48.68841 10278 ft 347 kts 168°
2026-04-08 16:24 -27.41822 -48.68040 10134 ft 338 kts 168°
2026-04-08 16:24 -27.44032 -48.67249 9976 ft 329 kts 168°
2026-04-08 16:24 -27.46192 -48.66477 9850 ft 321 kts 168°
2026-04-08 16:24 -27.48278 -48.65640 9759 ft 317 kts 156°
2026-04-08 16:25 -27.49979 -48.64119 9462 ft 322 kts 134°
2026-04-08 16:25 -27.51251 -48.62004 9074 ft 326 kts 123°
2026-04-08 16:25 -27.52417 -48.59800 8707 ft 327 kts 123°
2026-04-08 16:25 -27.53573 -48.57597 8397 ft 324 kts 123°
2026-04-08 16:26 -27.54723 -48.55421 8086 ft 322 kts 123°
2026-04-08 16:26 -27.55873 -48.53265 7764 ft 320 kts 124°
2026-04-08 16:26 -27.57024 -48.51124 7482 ft 318 kts 124°
2026-04-08 16:26 -27.58167 -48.49001 7186 ft 316 kts 124°
2026-04-08 16:27 -27.59304 -48.46883 6889 ft 315 kts 124°
2026-04-08 16:27 -27.60446 -48.44764 6445 ft 317 kts 124°
2026-04-08 16:27 -27.61599 -48.42626 6007 ft 321 kts 123°
2026-04-08 16:27 -27.62757 -48.40465 5561 ft 323 kts 123°
2026-04-08 16:28 -27.63922 -48.38290 5070 ft 322 kts 123°
2026-04-08 16:28 -27.65071 -48.36171 4613 ft 317 kts 126°
2026-04-08 16:28 -27.66559 -48.34471 4323 ft 299 kts 152°
2026-04-08 16:28 -27.68434 -48.33669 3982 ft 280 kts 178°
2026-04-08 16:29 -27.70313 -48.33645 3673 ft 264 kts 194°
2026-04-08 16:29 -27.71992 -48.34163 3550 ft 236 kts 212°
2026-04-08 16:29 -27.73365 -48.35003 3405 ft 215 kts 218°
2026-04-08 16:29 -27.74584 -48.35885 3158 ft 204 kts 229°
2026-04-08 16:30 -27.75240 -48.37177 2871 ft 182 kts 263°
2026-04-08 16:30 -27.75266 -48.38557 2636 ft 171 kts 285°
2026-04-08 16:30 -27.74836 -48.39763 2433 ft 163 kts 300°
2026-04-08 16:30 -27.74259 -48.40853 2299 ft 157 kts 301°
2026-04-08 16:31 -27.73699 -48.41889 2127 ft 154 kts 301°
2026-04-08 16:31 -27.73147 -48.42900 1983 ft 152 kts 303°
2026-04-08 16:31 -27.72593 -48.43926 1855 ft 148 kts 303°
2026-04-08 16:31 -27.72066 -48.44902 1676 ft 144 kts 303°
2026-04-08 16:32 -27.71557 -48.45854 1489 ft 144 kts 302°
2026-04-08 16:32 -27.71037 -48.46831 1336 ft 148 kts 303°
2026-04-08 16:32 -27.70500 -48.47830 1134 ft 149 kts 303°
2026-04-08 16:32 -27.69965 -48.48824 934 ft 147 kts 303°
2026-04-08 16:33 -27.69433 -48.49809 742 ft 147 kts 304°
2026-04-08 16:33 -27.68898 -48.50802 541 ft 147 kts 304°
2026-04-08 16:33 -27.68374 -48.51779 335 ft 145 kts 301°
2026-04-08 16:33 -27.67871 -48.52752 125 ft 144 kts 303°
2026-04-08 16:34 -27.67348 -48.53681 27 ft 137 kts 302°
2026-04-08 16:34 -27.66967 -48.54386 29 ft 49 kts 301°
2026-04-08 16:34 -27.66946 -48.54487 29 ft 5 kts 234°
2026-04-08 16:34 -27.66980 -48.54518 27 ft 7 kts 218°
2026-04-08 16:35 -27.67030 -48.54555 30 ft 9 kts 212°
2026-04-08 16:35 -27.67083 -48.54593 28 ft 9 kts 212°
2026-04-08 16:35 -27.67138 -48.54618 28 ft 9 kts 183°
2026-04-08 16:35 -27.67194 -48.54597 28 ft 8 kts 141°
2026-04-08 16:36 -27.67227 -48.54564 28 ft 5 kts 170°
2026-04-08 16:36 -27.67259 -48.54575 28 ft 0 kts 207°
2026-04-08 16:36 -27.67261 -48.54576 28 ft 0 kts 209°